Location: Armagh
(54.3500°N, 6.6670°W)
Time: 02:13:48
(UTC+00:00)

ISS - Pass Details

Date: 11 December 2017
Orbit: 402 x 407 km, 51.6° (Epoch: 18 January)

Event Time Altitude Azimuth Distance (km) Brightness Sun altitude
Rises 18:31:16 0° 276° (W) 2,342 1.4 -20.1°
Reaches altitude 10° 18:33:32 10° 264° (W) 1,477 0.2 -20.5°
Maximum altitude 18:36:24 27° 204° (SSW) 814 -2.0 -20.9°
Enters shadow 18:37:14 24° 177° (S) 887 -2.1 -21.0°
